Weather History for KABI - December, 2010

Change the Weather History Date:

Wednesday, December 22, 2010

  Actual Average Record
Temperature  
Mean Temperature 48 °F 44 °F  
Max Temperature 55 °F 56 °F 79 °F (1964)
Min Temperature 40 °F 33 °F -2 °F (1989)
Degree Days  
Heating Degree Days 17 21  
Month to date heating degree days 326 423  
Since 1 July heating degree days 653 856  
Cooling Degree Days 0 0  
Month to date cooling degree days 5 0  
Year to date cooling degree days 2669 2408  
Moisture  
Dew Point 32 °F    
Average Humidity 63    
Maximum Humidity 86    
Minimum Humidity 40    
Precipitation  
Precipitation 0.00 in 0.04 in 1.45 in (1932)
Month to date precipitation 0.00 0.89  
Year to date precipitation 26.59 24.48  
Sea Level Pressure  
Sea Level Pressure 30.26 in    
Wind  
Wind Speed 9 mph (NNE)    
Max Wind Speed 17 mph    
Max Gust Speed 20 mph    
Visibility 9 miles    
Events      
T = Trace of Precipitation, MM = Missing Value Source: NWS Daily Summary

Daily Weather History Graph

Daily Weather History Graph

Search for Another Location

Airport or City:

Trip Planner

Search our weather history database for the weather conditions in past years. The results will help you decide how hot, cold, wet, or windy it might be!

Date:

Astronomy

Dec. 22, 2010 Rise Set
Actual Time 7:36 AM CST 5:38 PM CST
Civil Twilight 7:09 AM CST 6:05 PM CST
Nautical Twilight 6:38 AM CST 6:35 PM CST
Astronomical Twilight 6:08 AM CST 7:05 PM CST
Moon 7:19 PM CST (12/22) 8:43 AM CST (12/22)
Length of Visible Light 10h 55m
Length of Day
10h 01m
Full, 98% of the Moon is Illuminated
Dec 22
Full
Dec 27
Last Quarter
Jan 4
New
Jan 12
First Quarter
Jan 19
Full

Hourly Weather History & Observations

Time (CST) Temp. Windchill Dew Point Humidity Pressure Visibility Wind Dir Wind Speed Gust Speed Precip Events Conditions
12:52 AM 45.0 °F 39.3 °F 36.0 °F 71% 30.11 in 10.0 mi North 11.5 mph - N/A   Clear
1:52 AM 42.1 °F 36.1 °F 36.0 °F 79% 30.14 in 8.0 mi North 10.4 mph - N/A   Clear
2:45 AM 41.0 °F 35.2 °F 37.4 °F 87% 30.19 in 7.0 mi North 9.2 mph - N/A   Mostly Cloudy
2:52 AM 41.0 °F 34.7 °F 37.0 °F 86% 30.15 in 7.0 mi North 10.4 mph - N/A   Mostly Cloudy
3:52 AM 41.0 °F 35.8 °F 37.0 °F 86% 30.18 in 6.0 mi North 8.1 mph - N/A   Overcast
4:52 AM 41.0 °F 34.3 °F 36.0 °F 82% 30.19 in 6.0 mi North 11.5 mph - N/A   Haze
5:52 AM 41.0 °F 33.5 °F 36.0 °F 82% 30.22 in 7.0 mi North 13.8 mph - N/A   Overcast
6:31 AM 41.0 °F 33.9 °F 35.6 °F 81% 30.26 in 7.0 mi North 12.7 mph - N/A   Overcast
6:52 AM 39.9 °F 32.9 °F 35.1 °F 83% 30.25 in 7.0 mi North 11.5 mph 19.6 mph N/A   Overcast
7:04 AM 41.0 °F 34.7 °F 35.6 °F 81% 30.27 in 7.0 mi North 10.4 mph - N/A   Overcast
7:41 AM 41.0 °F 36.4 °F 35.6 °F 81% 30.28 in 7.0 mi NNE 6.9 mph - N/A   Overcast
7:52 AM 41.0 °F 35.8 °F 35.1 °F 79% 30.27 in 6.0 mi NNE 8.1 mph - N/A   Haze
8:52 AM 43.0 °F 37.7 °F 32.0 °F 65% 30.29 in 8.0 mi NNE 9.2 mph - N/A   Overcast
9:52 AM 44.1 °F 37.4 °F 30.0 °F 58% 30.31 in 9.0 mi NNE 13.8 mph - N/A   Overcast
10:52 AM 46.0 °F 41.4 °F 30.0 °F 54% 30.32 in 9.0 mi NE 9.2 mph - N/A   Overcast
11:25 AM 48.2 °F - 30.2 °F 50% 30.32 in 10.0 mi NNE 11.5 mph - N/A   Scattered Clouds
11:52 AM 48.9 °F - 32.0 °F 52% 30.30 in 9.0 mi North 15.0 mph 18.4 mph N/A   Clear
12:52 PM 52.0 °F - 32.0 °F 47% 30.26 in 10.0 mi NNE 9.2 mph - N/A   Clear
1:52 PM 53.1 °F - 33.1 °F 47% 30.24 in 10.0 mi NE 6.9 mph 19.6 mph N/A   Clear
2:52 PM 54.0 °F - 34.0 °F 47% 30.24 in 10.0 mi NNE 11.5 mph - N/A   Clear
3:52 PM 52.0 °F - 28.9 °F 41% 30.25 in 10.0 mi NNW 11.5 mph - N/A   Clear
4:52 PM 52.0 °F - 32.0 °F 47% 30.26 in 10.0 mi NE 9.2 mph - N/A   Clear
5:52 PM 46.9 °F - 28.9 °F 50% 30.29 in 10.0 mi North 5.8 mph - N/A   Clear
6:52 PM 45.0 °F 41.8 °F 27.0 °F 49% 30.30 in 10.0 mi North 5.8 mph - N/A   Clear
7:52 PM 44.1 °F 41.5 °F 28.0 °F 53% 30.31 in 10.0 mi NNE 4.6 mph - N/A   Mostly Cloudy
8:52 PM 44.1 °F 41.5 °F 25.0 °F 47% 30.31 in 10.0 mi NE 4.6 mph - N/A   Mostly Cloudy
9:52 PM 44.1 °F 41.5 °F 23.0 °F 43% 30.31 in 10.0 mi ENE 4.6 mph - N/A   Overcast
10:52 PM 44.1 °F 41.5 °F 21.9 °F 42% 30.32 in 10.0 mi ENE 4.6 mph - N/A   Overcast
11:52 PM 42.1 °F 39.2 °F 21.0 °F 43% 30.31 in 10.0 mi NNE 4.6 mph - N/A   Overcast